This is the latest recevied weather packets stored in our database for station/object SP1BMW-13. If no packets are shown the sender has not sent any weather packets the latest 1 day(s).
| Time | Temp. | Humidity | Pressure | Rain* | Wind** | Luminosity | Snow |
|---|---|---|---|---|---|---|---|
| 1778029909 | 10° C | 93% | 1006.9 hPa | 0 mm | 1.34 m/s, 40° | 0 W/m² | - |
| 1778029849 | 10° C | 93% | 1007.1 hPa | 0 mm | 1.34 m/s, 49° | 0 W/m² | - |
| 1778029792 | 10° C | 93% | 1006.9 hPa | 0 mm | 0.89 m/s, 27° | 0 W/m² | - |
| 1778029729 | 10° C | 93% | 1007 hPa | 0 mm | 0.89 m/s, 49° | 0 W/m² | - |
| 1778029669 | 10° C | 93% | 1006.9 hPa | 0 mm | 1.34 m/s, 317° | 0 W/m² | - |
| 1778029609 | 10° C | 93% | 1006.9 hPa | 0 mm | 0.45 m/s, 19° | 0 W/m² | - |
| 1778029549 | 10° C | 93% | 1007 hPa | 0 mm | 0.89 m/s, 331° | 0 W/m² | - |
| 1778029489 | 10° C | 93% | 1007 hPa | 0 mm | 0 m/s | 0 W/m² | - |
| 1778029428 | 10° C | 93% | 1007 hPa | 0 mm | 1.34 m/s, 4° | 0 W/m² | - |
| 1778029369 | 10° C | 93% | 1006.9 hPa | 0 mm | 0.89 m/s, 26° | 0 W/m² | - |
| 1778029308 | 10° C | 93% | 1007 hPa | 0 mm | 0.89 m/s, 65° | 0 W/m² | - |
| 1778029249 | 10° C | 93% | 1007.2 hPa | 0 mm | 0.45 m/s, 42° | 0 W/m² | - |
| 1778029188 | 10° C | 93% | 1007 hPa | 0 mm | 0.89 m/s, 66° | 0 W/m² | - |
| 1778029128 | 10° C | 93% | 1007 hPa | 0 mm | 0.89 m/s, 44° | 0 W/m² | - |
| 1778029071 | 10° C | 93% | 1007.1 hPa | 0 mm | 0.89 m/s, 52° | 0 W/m² | - |
| 1778029008 | 10° C | 93% | 1007.1 hPa | 0 mm | 0.45 m/s, 325° | 0 W/m² | - |
| 1778028949 | 10° C | 93% | 1007.1 hPa | 0 mm | 0.89 m/s, 25° | 0 W/m² | - |
| 1778028888 | 10° C | 93% | 1007.1 hPa | 0 mm | 1.79 m/s, 43° | 0 W/m² | - |
| 1778028828 | 10° C | 93% | 1007 hPa | 0 mm | 1.34 m/s, 46° | 0 W/m² | - |
| 1778028771 | 10° C | 93% | 1007 hPa | 0 mm | 0 m/s | 0 W/m² | - |
| 1778028709 | 10° C | 93% | 1006.9 hPa | 0 mm | 0 m/s | 0 W/m² | - |
| 1778028648 | 10° C | 93% | 1007 hPa | 0 mm | 0.45 m/s, 27° | 0 W/m² | - |
| 1778028588 | 10° C | 93% | 1007 hPa | 0 mm | 0.45 m/s, 28° | 0 W/m² | - |
| 1778028528 | 10° C | 93% | 1006.9 hPa | 0 mm | 0.89 m/s, 29° | 0 W/m² | - |
| 1778028468 | 10° C | 93% | 1007 hPa | 0 mm | 0 m/s | 0 W/m² | - |
* Rain latest hour (hover to see other rain measurements)
** Current wind speed in m/s (hover to see current wind gust speed)